| time (UTC) | temp F | wind direction | speed MPH | gust MPH | rain 1hr in | rain 24hr in | rain mn in | humidity % | barometer mb |
| 20260906121919 | 69 | 44 | 0.0 | 1.0 | 0.00 | 0.00 | 0.00 | 99 | 1016.4 |
| 20260906121415 | 69 | 45 | 0.0 | 2.0 | 0.00 | 0.00 | 0.00 | 99 | 1016.6 |
| 20260906120911 | 69 | 46 | 1.0 | 2.0 | 0.00 | 0.00 | 0.00 | 99 | 1016.2 |
| 20260906120406 | 69 | 60 | 2.0 | 6.0 | 0.00 | 0.00 | 0.00 | 99 | 1016.5 |
| 20260906115902 | 69 | 44 | 0.0 | 1.0 | 0.00 | 0.00 | 0.00 | 99 | 1016.3 |
| 20260906115358 | 69 | 47 | 0.0 | 2.0 | 0.00 | 0.00 | 0.00 | 99 | 1016.3 |
| 20260906114857 | 69 | 44 | 2.0 | 3.0 | 0.00 | 0.00 | 0.00 | 99 | 1016.1 |
| 20260906114352 | 69 | 7 | 1.0 | 2.0 | 0.00 | 0.00 | 0.00 | 99 | 1016.2 |
| 20260906113848 | 69 | 31 | 1.0 | 3.0 | 0.00 | 0.00 | 0.00 | 99 | 1016.0 |
| 20260906113346 | 69 | 41 | 1.0 | 3.0 | 0.00 | 0.00 | 0.00 | 99 | 1016.1 |
| 20260906112842 | 69 | 46 | 1.0 | 2.0 | 0.00 | 0.00 | 0.00 | 99 | 1015.8 |
| 20260906112338 | 69 | 50 | 2.0 | 4.0 | 0.00 | 0.00 | 0.00 | 99 | 1015.8 |
| 20260906111837 | 69 | 46 | 2.0 | 3.0 | 0.00 | 0.00 | 0.00 | 99 | 1015.7 |
| 20260906111337 | 69 | 38 | 1.0 | 3.0 | 0.00 | 0.00 | 0.00 | 99 | 1015.8 |
| 20260906110832 | 69 | 47 | 1.0 | 2.0 | 0.00 | 0.00 | 0.00 | 99 | 1015.3 |
| 20260906110328 | 69 | 23 | 0.0 | 2.0 | 0.00 | 0.00 | 0.00 | 99 | 1015.5 |
| 20260906105827 | 70 | 21 | 2.0 | 2.0 | 0.00 | 0.00 | 0.00 | 99 | 1015.4 |
| 20260906105323 | 70 | 5 | 0.0 | 1.0 | 0.00 | 0.00 | 0.00 | 99 | 1015.3 |
| 20260906104819 | 70 | 5 | 1.0 | 2.0 | 0.00 | 0.00 | 0.00 | 99 | 1015.2 |
| 20260906104317 | 70 | 13 | 0.0 | 2.0 | 0.00 | 0.00 | 0.00 | 99 | 1015.1 |
| 20260906103816 | 70 | 57 | 0.0 | 1.0 | 0.00 | 0.00 | 0.00 | 99 | 1015.2 |
| 20260906103314 | 70 | 58 | 0.0 | 1.0 | 0.00 | 0.00 | 0.00 | 99 | 1015.0 |
| 20260906102811 | 70 | 58 | 0.0 | 0.0 | 0.00 | 0.00 | 0.00 | 99 | 1014.9 |
| 20260906102309 | 70 | 58 | 0.0 | 0.0 | 0.00 | 0.00 | 0.00 | 99 | 1014.9 |
| 20260906101805 | 70 | 58 | 0.0 | 0.0 | 0.00 | 0.00 | 0.00 | 99 | 1015.0 |
| 20260906101300 | 70 | 58 | 0.0 | 0.0 | 0.00 | 0.00 | 0.00 | 99 | 1015.0 |
| 20260906100755 | 70 | 58 | 0.0 | 0.0 | 0.00 | 0.00 | 0.00 | 99 | 1015.0 |
| 20260906100254 | 70 | 58 | 0.0 | 0.0 | 0.00 | 0.00 | 0.00 | 99 | 1015.0 |
| 20260906095750 | 70 | 58 | 0.0 | 0.0 | 0.00 | 0.00 | 0.00 | 99 | 1014.9 |
| 20260906095244 | 70 | 58 | 0.0 | 0.0 | 0.00 | 0.00 | 0.00 | 99 | 1014.9 |
| 20260906094739 | 70 | 58 | 0.0 | 0.0 | 0.00 | 0.00 | 0.00 | 99 | 1014.9 |
| 20260906094234 | 70 | 58 | 0.0 | 1.0 | 0.00 | 0.00 | 0.00 | 99 | 1015.0 |
| 20260906093730 | 70 | 58 | 0.0 | 0.0 | 0.00 | 0.00 | 0.00 | 99 | 1014.9 |
| 20260906093225 | 70 | 58 | 0.0 | 0.0 | 0.00 | 0.00 | 0.00 | 99 | 1015.0 |
| 20260906092721 | 70 | 58 | 1.0 | 1.0 | 0.00 | 0.00 | 0.00 | 99 | 1015.0 |
| 20260906092219 | 70 | 58 | 0.0 | 1.0 | 0.00 | 0.00 | 0.00 | 99 | 1014.9 |
| 20260906091716 | 70 | 58 | 0.0 | 1.0 | 0.00 | 0.00 | 0.00 | 99 | 1015.0 |
| 20260906091212 | 70 | 356 | 1.0 | 2.0 | 0.00 | 0.00 | 0.00 | 99 | 1015.0 |
| 20260906090708 | 70 | 346 | 1.0 | 2.0 | 0.00 | 0.00 | 0.00 | 99 | 1014.9 |
| 20260906090208 | 70 | 39 | 0.0 | 0.0 | 0.00 | 0.00 | 0.00 | 99 | 1014.9 |
| 20260906085707 | 70 | 30 | 0.0 | 2.0 | 0.00 | 0.00 | 0.00 | 99 | 1014.8 |
| 20260906085206 | 69 | 352 | 0.0 | 3.0 | 0.00 | 0.00 | 0.00 | 99 | 1015.0 |
| 20260906084701 | 70 | 48 | 0.0 | 0.0 | 0.00 | 0.00 | 0.00 | 99 | 1014.9 |
| 20260906084200 | 69 | 48 | 1.0 | 2.0 | 0.00 | 0.00 | 0.00 | 99 | 1014.7 |
| 20260906083655 | 69 | 75 | 0.0 | 2.0 | 0.00 | 0.00 | 0.00 | 99 | 1014.9 |
| 20260906083151 | 68 | 188 | 0.0 | 1.0 | 0.00 | 0.00 | 0.00 | 99 | 1015.0 |
| 20260906082646 | 68 | 188 | 0.0 | 0.0 | 0.00 | 0.00 | 0.00 | 99 | 1014.9 |
| 20260906082141 | 68 | 188 | 0.0 | 0.0 | 0.00 | 0.00 | 0.00 | 99 | 1014.8 |
| 20260906081632 | 68 | 188 | 0.0 | 0.0 | 0.00 | 0.00 | 0.00 | 99 | 1015.0 |
| 20260906081126 | 67 | 188 | 0.0 | 0.0 | 0.00 | 0.00 | 0.00 | 99 | 1014.9 |
| 20260906080623 | 67 | 188 | 0.0 | 0.0 | 0.00 | 0.00 | 0.00 | 99 | 1014.9 |
| 20260906080119 | 67 | 188 | 0.0 | 0.0 | 0.00 | 0.00 | 0.00 | 99 | 1014.9 |
| 20260906075618 | 68 | 188 | 0.0 | 0.0 | 0.00 | 0.00 | 0.00 | 99 | 1014.9 |
| 20260906075113 | 67 | 188 | 0.0 | 0.0 | 0.00 | 0.00 | 0.00 | 99 | 1014.8 |
| 20260906074608 | 67 | 188 | 0.0 | 0.0 | 0.00 | 0.00 | 0.00 | 99 | 1014.7 |
| 20260906074108 | 68 | 188 | 0.0 | 0.0 | 0.00 | 0.00 | 0.00 | 99 | 1014.8 |
| 20260906073608 | 68 | 188 | 0.0 | 0.0 | 0.00 | 0.00 | 0.00 | 99 | 1014.7 |
| 20260906073104 | 68 | 188 | 0.0 | 0.0 | 0.00 | 0.00 | 0.00 | 99 | 1014.6 |
| 20260906072558 | 68 | 188 | 0.0 | 0.0 | 0.00 | 0.00 | 0.00 | 99 | 1014.7 |
| 20260906072055 | 68 | 188 | 0.0 | 0.0 | 0.00 | 0.00 | 0.00 | 99 | 1014.5 |
| 20260906071551 | 68 | 188 | 0.0 | 0.0 | 0.00 | 0.00 | 0.00 | 99 | 1014.8 |
| 20260906071045 | 68 | 188 | 1.0 | 2.0 | 0.00 | 0.00 | 0.00 | 99 | 1014.7 |
| 20260906070542 | 68 | 188 | 0.0 | 0.0 | 0.00 | 0.00 | 0.00 | 99 | 1014.7 |
| 20260906070037 | 68 | 188 | 0.0 | 0.0 | 0.00 | 0.00 | 0.00 | 99 | 1014.7 |
| 20260906065537 | 68 | 188 | 0.0 | 0.0 | 0.00 | 0.00 | 0.00 | 99 | 1014.9 |
| 20260906065032 | 67 | 188 | 0.0 | 0.0 | 0.00 | 0.00 | 0.00 | 99 | 1015.1 |
| 20260906064528 | 67 | 188 | 0.0 | 0.0 | 0.00 | 0.00 | 0.00 | 99 | 1014.8 |
| 20260906064022 | 68 | 188 | 0.0 | 0.0 | 0.00 | 0.00 | 0.00 | 99 | 1015.0 |
| 20260906063518 | 68 | 188 | 0.0 | 0.0 | 0.00 | 0.00 | 0.00 | 99 | 1014.8 |
| 20260906063014 | 69 | 188 | 0.0 | 0.0 | 0.00 | 0.00 | 0.00 | 99 | 1014.8 |
| 20260906062508 | 69 | 188 | 0.0 | 0.0 | 0.00 | 0.00 | 0.00 | 99 | 1014.8 |
| 20260906062003 | 68 | 188 | 0.0 | 0.0 | 0.00 | 0.00 | 0.00 | 99 | 1014.7 |
| 20260906061459 | 68 | 188 | 0.0 | 0.0 | 0.00 | 0.00 | 0.00 | 99 | 1014.7 |
| 20260906060953 | 68 | 188 | 0.0 | 0.0 | 0.00 | 0.00 | 0.00 | 99 | 1014.6 |
| 20260906060450 | 68 | 188 | 0.0 | 0.0 | 0.00 | 0.00 | 0.00 | 99 | 1014.8 |
| 20260906055946 | 68 | 188 | 0.0 | 0.0 | 0.00 | 0.00 | 0.00 | 99 | 1014.9 |
| 20260906055442 | 68 | 188 | 0.0 | 0.0 | 0.00 | 0.00 | 0.00 | 99 | 1014.7 |
| 20260906054937 | 68 | 188 | 0.0 | 0.0 | 0.00 | 0.00 | 0.00 | 99 | 1014.9 |
| 20260906054432 | 68 | 188 | 0.0 | 0.0 | 0.00 | 0.00 | 0.00 | 99 | 1014.8 |
| 20260906053928 | 68 | 188 | 0.0 | 0.0 | 0.00 | 0.00 | 0.00 | 99 | 1014.9 |
| 20260906053424 | 69 | 188 | 0.0 | 0.0 | 0.00 | 0.00 | 0.00 | 99 | 1015.0 |
| 20260906052919 | 69 | 188 | 0.0 | 0.0 | 0.00 | 0.00 | 0.00 | 99 | 1014.9 |
| 20260906052415 | 69 | 188 | 0.0 | 0.0 | 0.00 | 0.00 | 0.00 | 99 | 1014.9 |
| 20260906051912 | 68 | 188 | 0.0 | 0.0 | 0.00 | 0.00 | 0.00 | 99 | 1014.8 |
| 20260906051412 | 68 | 188 | 0.0 | 0.0 | 0.00 | 0.00 | 0.00 | 99 | 1014.8 |
| 20260906050908 | 69 | 188 | 0.0 | 0.0 | 0.00 | 0.00 | 0.00 | 99 | 1014.9 |
| 20260906050402 | 69 | 188 | 0.0 | 0.0 | 0.00 | 0.00 | 0.00 | 99 | 1014.7 |
| 20260906045901 | 69 | 188 | 0.0 | 0.0 | 0.00 | 0.00 | 0.00 | 99 | 1014.9 |
| 20260906045400 | 69 | 188 | 0.0 | 0.0 | 0.00 | 0.00 | 0.00 | 99 | 1014.6 |
| 20260906044857 | 69 | 188 | 0.0 | 0.0 | 0.00 | 0.00 | 0.00 | 99 | 1014.6 |
| 20260906044357 | 69 | 188 | 0.0 | 0.0 | 0.00 | 0.00 | 0.00 | 99 | 1014.6 |
| 20260906043853 | 69 | 188 | 0.0 | 0.0 | 0.00 | 0.00 | 0.00 | 99 | 1014.6 |
| 20260906043349 | 70 | 188 | 0.0 | 0.0 | 0.00 | 0.00 | 0.00 | 99 | 1014.5 |
| 20260906042844 | 70 | 188 | 1.0 | 1.0 | 0.00 | 0.00 | 0.00 | 99 | 1014.5 |
| 20260906042342 | 70 | 188 | 2.0 | 2.0 | 0.00 | 0.00 | 0.00 | 99 | 1014.6 |
| 20260906041838 | 70 | 188 | 0.0 | 0.0 | 0.00 | 0.00 | 0.00 | 99 | 1014.5 |
| 20260906041334 | 70 | 188 | 0.0 | 0.0 | 0.00 | 0.00 | 0.00 | 99 | 1014.4 |
| 20260906040834 | 70 | 188 | 0.0 | 0.0 | 0.00 | 0.00 | 0.00 | 99 | 1014.4 |
| 20260906040329 | 71 | 188 | 0.0 | 0.0 | 0.00 | 0.22 | 0.22 | 99 | 1014.4 |
| 20260906035824 | 71 | 188 | 1.0 | 2.0 | 0.00 | 0.22 | 0.22 | 99 | 1014.6 |
| 20260906035325 | 71 | 188 | 2.0 | 3.0 | 0.00 | 0.22 | 0.22 | 99 | 1014.4 |
| 20260906034821 | 71 | 153 | 1.0 | 2.0 | 0.00 | 0.22 | 0.22 | 99 | 1014.5 |
| 20260906034321 | 71 | 153 | 0.0 | 0.0 | 0.00 | 0.22 | 0.22 | 99 | 1014.4 |
| 20260906033816 | 71 | 153 | 1.0 | 2.0 | 0.00 | 0.22 | 0.22 | 99 | 1014.4 |
| 20260906033315 | 71 | 41 | 0.0 | 0.0 | 0.00 | 0.22 | 0.22 | 99 | 1014.7 |
| 20260906032812 | 70 | 37 | 1.0 | 2.0 | 0.00 | 0.22 | 0.22 | 99 | 1014.6 |
| 20260906032307 | 70 | 316 | 0.0 | 0.0 | 0.00 | 0.22 | 0.22 | 99 | 1014.6 |
| 20260906031803 | 70 | 316 | 0.0 | 0.0 | 0.00 | 0.22 | 0.22 | 99 | 1014.6 |
| 20260906031258 | 70 | 316 | 0.0 | 0.0 | 0.00 | 0.22 | 0.22 | 99 | 1014.7 |
| 20260906030758 | 71 | 316 | 0.0 | 0.0 | 0.00 | 0.22 | 0.22 | 99 | 1014.6 |
| 20260906030253 | 70 | 316 | 0.0 | 0.0 | 0.00 | 0.22 | 0.22 | 99 | 1014.8 |
| 20260906025752 | 71 | 316 | 0.0 | 0.0 | 0.00 | 0.22 | 0.22 | 99 | 1014.9 |
| 20260906025247 | 70 | 316 | 0.0 | 0.0 | 0.00 | 0.22 | 0.22 | 99 | 1014.9 |
| 20260906024746 | 70 | 316 | 0.0 | 0.0 | 0.00 | 0.22 | 0.22 | 99 | 1014.9 |
| 20260906024245 | 70 | 316 | 0.0 | 0.0 | 0.00 | 0.22 | 0.22 | 99 | 1014.9 |
| 20260906023741 | 71 | 316 | 0.0 | 0.0 | 0.00 | 0.22 | 0.22 | 99 | 1014.8 |
| 20260906023236 | 70 | 316 | 0.0 | 0.0 | 0.00 | 0.22 | 0.22 | 99 | 1014.7 |
| 20260906022731 | 71 | 316 | 0.0 | 0.0 | 0.00 | 0.22 | 0.22 | 99 | 1015.0 |
| 20260906022227 | 71 | 316 | 0.0 | 0.0 | 0.00 | 0.22 | 0.22 | 99 | 1014.8 |
| 20260906021723 | 71 | 316 | 0.0 | 0.0 | 0.00 | 0.22 | 0.22 | 99 | 1014.9 |
| 20260906021222 | 71 | 316 | 0.0 | 0.0 | 0.00 | 0.22 | 0.22 | 99 | 1014.9 |
| 20260906020717 | 72 | 316 | 0.0 | 0.0 | 0.00 | 0.22 | 0.22 | 99 | 1014.7 |
| 20260906020212 | 72 | 316 | 1.0 | 1.0 | 0.00 | 0.22 | 0.22 | 99 | 1014.6 |
| 20260906015712 | 71 | 316 | 0.0 | 0.0 | 0.00 | 0.22 | 0.22 | 99 | 1014.5 |
| 20260906015210 | 72 | 316 | 0.0 | 1.0 | 0.00 | 0.22 | 0.22 | 99 | 1014.3 |
| 20260906014710 | 72 | 316 | 1.0 | 1.0 | 0.00 | 0.22 | 0.22 | 99 | 1014.4 |
| 20260906014206 | 72 | 318 | 0.0 | 0.0 | 0.00 | 0.22 | 0.22 | 99 | 1014.1 |
| 20260906013702 | 72 | 318 | 0.0 | 0.0 | 0.00 | 0.22 | 0.22 | 99 | 1014.3 |
| 20260906013157 | 72 | 318 | 0.0 | 0.0 | 0.00 | 0.22 | 0.22 | 99 | 1014.3 |
| 20260906012657 | 72 | 318 | 0.0 | 0.0 | 0.00 | 0.22 | 0.22 | 99 | 1014.3 |
| 20260906012151 | 72 | 318 | 0.0 | 0.0 | 0.00 | 0.22 | 0.22 | 99 | 1014.3 |
| 20260906011647 | 72 | 318 | 0.0 | 0.0 | 0.00 | 0.22 | 0.22 | 99 | 1013.9 |
| 20260906011142 | 72 | 318 | 0.0 | 0.0 | 0.00 | 0.22 | 0.22 | 99 | 1013.9 |
| 20260906010638 | 73 | 318 | 0.0 | 0.0 | 0.00 | 0.22 | 0.22 | 99 | 1013.8 |
| 20260906010134 | 73 | 318 | 0.0 | 0.0 | 0.00 | 0.22 | 0.22 | 99 | 1013.8 |
| 20260906005633 | 73 | 318 | 0.0 | 0.0 | 0.00 | 0.22 | 0.22 | 99 | 1013.6 |
| 20260906005133 | 73 | 318 | 0.0 | 0.0 | 0.00 | 0.22 | 0.22 | 99 | 1013.6 |
| 20260906004632 | 73 | 318 | 0.0 | 0.0 | 0.00 | 0.22 | 0.22 | 99 | 1013.4 |
| 20260906004127 | 73 | 318 | 0.0 | 0.0 | 0.00 | 0.22 | 0.22 | 99 | 1013.6 |
| 20260906003622 | 73 | 318 | 0.0 | 0.0 | 0.00 | 0.22 | 0.22 | 99 | 1013.7 |
| 20260906003118 | 73 | 318 | 0.0 | 0.0 | 0.00 | 0.22 | 0.22 | 99 | 1013.8 |
| 20260906002613 | 73 | 318 | 0.0 | 0.0 | 0.00 | 0.22 | 0.22 | 99 | 1013.4 |
| 20260906002107 | 74 | 318 | 0.0 | 0.0 | 0.00 | 0.22 | 0.22 | 99 | 1013.6 |
| 20260906001602 | 74 | 318 | 0.0 | 0.0 | 0.00 | 0.22 | 0.22 | 98 | 1013.7 |
| 20260906001057 | 74 | 318 | 0.0 | 0.0 | 0.00 | 0.22 | 0.22 | 98 | 1013.8 |
| 20260906000553 | 74 | 318 | 0.0 | 0.0 | 0.00 | 0.22 | 0.22 | 98 | 1013.6 |
| 20260906000048 | 74 | 318 | 0.0 | 0.0 | 0.00 | 0.22 | 0.22 | 97 | 1013.7 |
| 20260905235547 | 75 | 318 | 0.0 | 0.0 | 0.00 | 0.22 | 0.22 | 97 | 1013.7 |
| 20260905235042 | 75 | 318 | 0.0 | 0.0 | 0.00 | 0.22 | 0.22 | 96 | 1013.7 |
| 20260905234538 | 75 | 318 | 0.0 | 1.0 | 0.00 | 0.22 | 0.22 | 96 | 1013.8 |
| 20260905234033 | 76 | 318 | 0.0 | 0.0 | 0.00 | 0.22 | 0.22 | 95 | 1013.7 |
| 20260905233532 | 76 | 318 | 0.0 | 0.0 | 0.00 | 0.22 | 0.22 | 94 | 1013.7 |
| 20260905233032 | 77 | 318 | 0.0 | 0.0 | 0.00 | 0.22 | 0.22 | 93 | 1013.8 |
| 20260905232528 | 78 | 318 | 0.0 | 0.0 | 0.00 | 0.22 | 0.22 | 92 | 1013.6 |
| 20260905232023 | 78 | 318 | 0.0 | 0.0 | 0.00 | 0.22 | 0.22 | 91 | 1013.7 |
| 20260905231518 | 79 | 318 | 0.0 | 0.0 | 0.00 | 0.22 | 0.22 | 89 | 1013.5 |
| 20260905231015 | 81 | 318 | 0.0 | 0.0 | 0.00 | 0.22 | 0.22 | 86 | 1013.6 |
| 20260905230514 | 82 | 318 | 0.0 | 0.0 | 0.00 | 0.22 | 0.22 | 81 | 1013.7 |
| 20260905230012 | 83 | 319 | 0.0 | 0.0 | 0.00 | 0.22 | 0.22 | 78 | 1013.8 |
| 20260905225508 | 84 | 319 | 1.0 | 1.0 | 0.00 | 0.22 | 0.22 | 75 | 1013.9 |
| 20260905225002 | 85 | 5 | 0.0 | 1.0 | 0.00 | 0.22 | 0.22 | 73 | 1013.6 |
| 20260905224457 | 85 | 5 | 0.0 | 1.0 | 0.00 | 0.22 | 0.22 | 73 | 1013.6 |
| 20260905223957 | 86 | 5 | 0.0 | 1.0 | 0.00 | 0.22 | 0.22 | 71 | 1013.7 |
| 20260905223455 | 85 | 5 | 0.0 | 1.0 | 0.00 | 0.22 | 0.22 | 72 | 1013.6 |
| 20260905222950 | 85 | 5 | 0.0 | 0.0 | 0.00 | 0.22 | 0.22 | 73 | 1013.7 |
| 20260905222449 | 85 | 5 | 0.0 | 1.0 | 0.00 | 0.22 | 0.22 | 75 | 1013.7 |
| 20260905221944 | 85 | 5 | 0.0 | 1.0 | 0.00 | 0.22 | 0.22 | 72 | 1013.7 |
| 20260905221441 | 84 | 5 | 0.0 | 1.0 | 0.00 | 0.22 | 0.22 | 74 | 1013.6 |
| 20260905220937 | 84 | 5 | 0.0 | 1.0 | 0.00 | 0.22 | 0.22 | 73 | 1013.7 |
| 20260905220433 | 84 | 4 | 1.0 | 2.0 | 0.00 | 0.22 | 0.22 | 74 | 1013.9 |
| 20260905215932 | 83 | 333 | 0.0 | 1.0 | 0.00 | 0.22 | 0.22 | 78 | 1013.9 |
| 20260905215427 | 83 | 333 | 0.0 | 1.0 | 0.00 | 0.22 | 0.22 | 77 | 1013.7 |
| 20260905214924 | 83 | 330 | 1.0 | 1.0 | 0.00 | 0.22 | 0.22 | 78 | 1013.7 |
| 20260905214419 | 83 | 285 | 0.0 | 0.0 | 0.00 | 0.22 | 0.22 | 79 | 1013.9 |
| 20260905213914 | 83 | 285 | 0.0 | 1.0 | 0.00 | 0.22 | 0.22 | 77 | 1013.8 |
| 20260905213410 | 84 | 285 | 0.0 | 1.0 | 0.00 | 0.22 | 0.22 | 75 | 1013.7 |
| 20260905212905 | 85 | 285 | 0.0 | 2.0 | 0.00 | 0.22 | 0.22 | 73 | 1013.6 |
| 20260905212400 | 86 | 323 | 0.0 | 2.0 | 0.00 | 0.22 | 0.22 | 73 | 1013.5 |
| 20260905211859 | 86 | 337 | 3.0 | 4.0 | 0.00 | 0.22 | 0.22 | 70 | 1013.7 |
| 20260905211355 | 87 | 345 | 1.0 | 2.0 | 0.00 | 0.22 | 0.22 | 70 | 1013.6 |
| 20260905210851 | 85 | 315 | 0.0 | 2.0 | 0.00 | 0.22 | 0.22 | 72 | 1013.4 |
| 20260905210350 | 86 | 244 | 2.0 | 6.0 | 0.00 | 0.22 | 0.22 | 71 | 1013.4 |
| 20260905205849 | 85 | 250 | 2.0 | 4.0 | 0.00 | 0.22 | 0.22 | 72 | 1013.3 |
| 20260905205344 | 85 | 217 | 2.0 | 4.0 | 0.00 | 0.22 | 0.22 | 71 | 1013.4 |
| 20260905204843 | 86 | 224 | 0.0 | 4.0 | 0.00 | 0.22 | 0.22 | 69 | 1013.3 |
| 20260905204340 | 86 | 36 | 2.0 | 3.0 | 0.00 | 0.22 | 0.22 | 72 | 1013.4 |
| 20260905203838 | 86 | 208 | 3.0 | 4.0 | 0.00 | 0.22 | 0.22 | 72 | 1013.6 |
| 20260905203335 | 87 | 22 | 0.0 | 2.0 | 0.00 | 0.22 | 0.22 | 73 | 1013.6 |
| 20260905202830 | 86 | 106 | 1.0 | 1.0 | 0.00 | 0.22 | 0.22 | 73 | 1013.6 |
| 20260905202325 | 84 | 240 | 0.0 | 1.0 | 0.00 | 0.22 | 0.22 | 72 | 1013.6 |
| 20260905201821 | 86 | 273 | 1.0 | 4.0 | 0.00 | 0.22 | 0.22 | 70 | 1013.7 |
| 20260905201316 | 88 | 260 | 1.0 | 2.0 | 0.00 | 0.22 | 0.22 | 72 | 1013.9 |
| 20260905200810 | 87 | 213 | 1.0 | 3.0 | 0.00 | 0.22 | 0.22 | 72 | 1013.8 |
| 20260905200307 | 87 | 347 | 1.0 | 2.0 | 0.00 | 0.22 | 0.22 | 68 | 1013.8 |
| 20260905195804 | 88 | 36 | 2.0 | 3.0 | 0.00 | 0.22 | 0.22 | 68 | 1013.9 |
| 20260905195259 | 87 | 281 | 2.0 | 2.0 | 0.00 | 0.22 | 0.22 | 70 | 1014.3 |
| 20260905194755 | 87 | 267 | 0.0 | 1.0 | 0.00 | 0.22 | 0.22 | 69 | 1014.3 |
| 20260905194254 | 86 | 84 | 1.0 | 2.0 | 0.00 | 0.22 | 0.22 | 69 | 1014.3 |
| 20260905193748 | 85 | 154 | 1.0 | 1.0 | 0.00 | 0.22 | 0.22 | 73 | 1014.4 |
| 20260905193243 | 85 | 227 | 1.0 | 2.0 | 0.00 | 0.22 | 0.22 | 70 | 1014.4 |
| 20260905192738 | 88 | 295 | 0.0 | 1.0 | 0.00 | 0.22 | 0.22 | 69 | 1014.6 |
| 20260905192235 | 87 | 252 | 2.0 | 3.0 | 0.00 | 0.22 | 0.22 | 67 | 1014.6 |
| 20260905191734 | 86 | 262 | 2.0 | 2.0 | 0.00 | 0.22 | 0.22 | 69 | 1014.6 |
| 20260905191233 | 84 | 273 | 1.0 | 2.0 | 0.00 | 0.22 | 0.22 | 72 | 1014.6 |
| 20260905190732 | 84 | 243 | 1.0 | 1.0 | 0.00 | 0.22 | 0.22 | 72 | 1014.9 |
| 20260905190231 | 84 | 233 | 4.0 | 4.0 | 0.00 | 0.22 | 0.22 | 74 | 1014.9 |
| 20260905185730 | 84 | 242 | 0.0 | 1.0 | 0.00 | 0.22 | 0.22 | 73 | 1014.9 |
| 20260905185225 | 84 | 254 | 3.0 | 4.0 | 0.00 | 0.22 | 0.22 | 75 | 1014.9 |
| 20260905184725 | 85 | 258 | 4.0 | 4.0 | 0.00 | 0.22 | 0.22 | 73 | 1014.9 |
| 20260905184224 | 85 | 120 | 1.0 | 3.0 | 0.00 | 0.22 | 0.22 | 71 | 1015.0 |
| 20260905183718 | 85 | 120 | 1.0 | 3.0 | 0.00 | 0.22 | 0.22 | 71 | 1015.0 |
| 20260905183213 | 84 | 222 | 0.0 | 1.0 | 0.00 | 0.22 | 0.22 | 77 | 1015.0 |
| 20260905182712 | 85 | 253 | 2.0 | 3.0 | 0.00 | 0.22 | 0.22 | 73 | 1015.1 |
| 20260905182212 | 84 | 276 | 3.0 | 4.0 | 0.00 | 0.22 | 0.22 | 72 | 1015.1 |
| 20260905181708 | 83 | 210 | 2.0 | 4.0 | 0.00 | 0.22 | 0.22 | 74 | 1015.2 |
| 20260905181201 | 84 | 233 | 5.0 | 6.0 | 0.00 | 0.22 | 0.22 | 73 | 1015.1 |
| 20260905180701 | 83 | 243 | 3.0 | 4.0 | 0.00 | 0.22 | 0.22 | 74 | 1015.2 |
| 20260905180157 | 83 | 215 | 0.0 | 2.0 | 0.00 | 0.22 | 0.22 | 74 | 1015.1 |
| 20260905175655 | 82 | 234 | 0.0 | 1.0 | 0.00 | 0.22 | 0.22 | 76 | 1015.3 |
| 20260905175151 | 82 | 235 | 2.0 | 3.0 | 0.00 | 0.22 | 0.22 | 76 | 1015.3 |
| 20260905174647 | 82 | 81 | 4.0 | 4.0 | 0.00 | 0.22 | 0.22 | 78 | 1015.5 |
| 20260905174142 | 83 | 88 | 0.0 | 1.0 | 0.00 | 0.22 | 0.22 | 77 | 1015.5 |
| 20260905173638 | 82 | 85 | 1.0 | 3.0 | 0.00 | 0.22 | 0.22 | 79 | 1015.2 |
| 20260905173134 | 83 | 117 | 2.0 | 2.0 | 0.00 | 0.22 | 0.22 | 77 | 1015.6 |
| 20260905172632 | 83 | 243 | 1.0 | 3.0 | 0.00 | 0.22 | 0.22 | 78 | 1015.7 |
| 20260905172127 | 82 | 269 | 2.0 | 2.0 | 0.00 | 0.22 | 0.22 | 76 | 1015.6 |
| 20260905171623 | 82 | 236 | 2.0 | 4.0 | 0.00 | 0.22 | 0.22 | 81 | 1015.6 |
| 20260905171119 | 81 | 117 | 1.0 | 4.0 | 0.00 | 0.22 | 0.22 | 80 | 1015.7 |
| 20260905170616 | 80 | 211 | 3.0 | 6.0 | 0.00 | 0.22 | 0.22 | 81 | 1016.0 |
| 20260905170111 | 81 | 225 | 2.0 | 3.0 | 0.00 | 0.22 | 0.22 | 81 | 1015.7 |
| 20260905165611 | 81 | 114 | 2.0 | 4.0 | 0.00 | 0.22 | 0.22 | 82 | 1015.9 |
| 20260905165106 | 80 | 122 | 1.0 | 1.0 | 0.00 | 0.22 | 0.22 | 82 | 1016.0 |
| 20260905164555 | 79 | 51 | 2.0 | 4.0 | 0.00 | 0.22 | 0.22 | 84 | 1016.0 |
| 20260905164050 | 80 | 111 | 3.0 | 4.0 | 0.00 | 0.22 | 0.22 | 83 | 1016.0 |
| 20260905163546 | 79 | 81 | 0.0 | 6.0 | 0.00 | 0.22 | 0.22 | 86 | 1016.2 |
| 20260905163042 | 79 | 81 | 1.0 | 8.0 | 0.00 | 0.22 | 0.22 | 84 | 1016.1 |
| 20260905162538 | 80 | 100 | 1.0 | 3.0 | 0.00 | 0.22 | 0.22 | 84 | 1016.2 |
| 20260905162038 | 78 | 125 | 1.0 | 4.0 | 0.00 | 0.22 | 0.22 | 86 | 1016.3 |
| 20260905161537 | 80 | 156 | 1.0 | 3.0 | 0.00 | 0.22 | 0.22 | 84 | 1016.3 |
| 20260905161035 | 80 | 216 | 2.0 | 4.0 | 0.00 | 0.22 | 0.22 | 83 | 1016.4 |
| 20260905160534 | 81 | 37 | 2.0 | 6.0 | 0.00 | 0.22 | 0.22 | 80 | 1016.6 |
| 20260905160028 | 79 | 215 | 1.0 | 2.0 | 0.00 | 0.22 | 0.22 | 84 | 1016.5 |
| 20260905155528 | 78 | 196 | 1.0 | 3.0 | 0.00 | 0.22 | 0.22 | 85 | 1016.6 |
| 20260905155026 | 80 | 92 | 0.0 | 1.0 | 0.00 | 0.22 | 0.22 | 86 | 1016.6 |
| 20260905154522 | 78 | 79 | 0.0 | 2.0 | 0.00 | 0.22 | 0.22 | 85 | 1016.4 |
| 20260905154017 | 79 | 38 | 3.0 | 3.0 | 0.00 | 0.22 | 0.22 | 88 | 1016.6 |
| 20260905153513 | 77 | 181 | 2.0 | 3.0 | 0.00 | 0.22 | 0.22 | 90 | 1016.4 |
| 20260905153014 | 76 | 74 | 1.0 | 2.0 | 0.00 | 0.22 | 0.22 | 92 | 1016.4 |
| 20260905152513 | 76 | 38 | 0.0 | 1.0 | 0.00 | 0.22 | 0.22 | 94 | 1016.3 |
| 20260905152008 | 75 | 9 | 0.0 | 1.0 | 0.00 | 0.22 | 0.22 | 97 | 1016.5 |
| 20260905151503 | 74 | 340 | 0.0 | 1.0 | 0.00 | 0.22 | 0.22 | 97 | 1016.2 |
| 20260905150958 | 74 | 357 | 2.0 | 2.0 | 0.00 | 0.22 | 0.22 | 98 | 1016.4 |
| 20260905150453 | 74 | 274 | 0.0 | 3.0 | 0.00 | 0.22 | 0.22 | 98 | 1016.4 |
| 20260905145950 | 73 | 223 | 1.0 | 4.0 | 0.00 | 0.22 | 0.22 | 99 | 1016.2 |
| 20260905145445 | 73 | 232 | 1.0 | 1.0 | 0.00 | 0.22 | 0.22 | 99 | 1015.7 |
| 20260905144944 | 73 | 231 | 0.0 | 1.0 | 0.00 | 0.22 | 0.22 | 99 | 1015.4 |
| 20260905144440 | 72 | 232 | 0.0 | 1.0 | 0.00 | 0.22 | 0.22 | 99 | 1015.1 |
| 20260905143939 | 72 | 208 | 2.0 | 4.0 | 0.00 | 0.22 | 0.22 | 99 | 1015.1 |
| 20260905143438 | 71 | 213 | 3.0 | 3.0 | 0.00 | 0.22 | 0.22 | 99 | 1015.5 |
| 20260905142932 | 72 | 311 | 0.0 | 1.0 | 0.00 | 0.22 | 0.22 | 99 | 1015.8 |
| 20260905142431 | 72 | 33 | 0.0 | 0.0 | 0.00 | 0.22 | 0.22 | 99 | 1015.7 |
| 20260905141927 | 71 | 217 | 0.0 | 2.0 | 0.00 | 0.22 | 0.22 | 99 | 1015.0 |
| 20260905141422 | 71 | 239 | 2.0 | 2.0 | 0.00 | 0.22 | 0.22 | 99 | 1015.1 |
| 20260905140918 | 71 | 160 | 0.0 | 1.0 | 0.00 | 0.22 | 0.22 | 99 | 1015.0 |
| 20260905140413 | 71 | 160 | 0.0 | 2.0 | 0.00 | 0.22 | 0.22 | 99 | 1015.4 |
| 20260905135912 | 71 | 228 | 1.0 | 2.0 | 0.00 | 0.22 | 0.22 | 99 | 1015.6 |
| 20260905135408 | 71 | 228 | 2.0 | 2.0 | 0.00 | 0.22 | 0.22 | 99 | 1016.1 |
| 20260905134904 | 71 | 228 | 1.0 | 3.0 | 0.00 | 0.22 | 0.22 | 99 | 1016.3 |
| 20260905134402 | 71 | 225 | 0.0 | 1.0 | 0.00 | 0.22 | 0.22 | 99 | 1016.4 |
| 20260905133856 | 71 | 225 | 0.0 | 0.0 | 0.00 | 0.22 | 0.22 | 99 | 1016.7 |
| 20260905133351 | 71 | 232 | 0.0 | 2.0 | 0.00 | 0.22 | 0.22 | 99 | 1015.9 |
| 20260905132851 | 71 | 232 | 1.0 | 2.0 | 0.00 | 0.22 | 0.22 | 99 | 1016.4 |
| 20260905132346 | 71 | 324 | 0.0 | 1.0 | 0.00 | 0.22 | 0.22 | 99 | 1016.2 |
| 20260905131840 | 71 | 320 | 1.0 | 1.0 | 0.00 | 0.22 | 0.22 | 99 | 1016.2 |
| 20260905131336 | 71 | 315 | 0.0 | 0.0 | 0.00 | 0.22 | 0.22 | 99 | 1016.7 |
| 20260905130831 | 71 | 315 | 0.0 | 0.0 | 0.00 | 0.22 | 0.22 | 99 | 1016.5 |
| 20260905130329 | 71 | 315 | 0.0 | 0.0 | 0.00 | 0.22 | 0.22 | 99 | 1016.9 |
| 20260905125825 | 71 | 304 | 0.0 | 1.0 | 0.00 | 0.22 | 0.22 | 99 | 1017.0 |
| 20260905125320 | 71 | 303 | 0.0 | 0.0 | 0.00 | 0.22 | 0.22 | 99 | 1016.9 |
| 20260905124817 | 71 | 307 | 1.0 | 1.0 | 0.00 | 0.22 | 0.22 | 99 | 1016.6 |
| 20260905124313 | 71 | 324 | 2.0 | 2.0 | 0.00 | 0.22 | 0.22 | 99 | 1016.7 |
| 20260905123813 | 71 | 349 | 0.0 | 1.0 | 0.00 | 0.22 | 0.22 | 99 | 1016.8 |
| 20260905123310 | 71 | 349 | 1.0 | 1.0 | 0.00 | 0.22 | 0.22 | 99 | 1016.7 |
| 20260905122809 | 71 | 349 | 0.0 | 1.0 | 0.00 | 0.22 | 0.22 | 99 | 1016.6 |
| 20260905122309 | 70 | 37 | 0.0 | 0.0 | 0.00 | 0.22 | 0.22 | 99 | 1016.6 |